Track ZHANGHENG-1 now! 10-day predictions ZHANGHENG-1 is classified as:
1 43194U 18015C 25018.48979619 .00020109 00000-0 91436-3 0 9993 2 43194 97.6289 170.6675 0007333 176.3649 183.7640 15.20749666386415